sat.trackr.live / text

‹ back to catalog

STARLINK-4694

NORAD 53708 · 2022-107J

PAYLOAD ACTIVE UNKNOWN

§ Identity

Operator
Country
US
Launch date
2022-09-05
Launch site
AFETR
Launch vehicle
Mass (kg)
RCS (m²)

Purposes: comms

External: N2YO · Heavens-Above · Gunter

§ Orbital elements

Epoch: 2026-09-20T14:19:20.305920Z

Period
93.79 min
Inclination
53.1594°
Eccentricity
0.0001116
Mean motion
15.35399937 rev/d
Perigee alt
459.0 km
Apogee alt
460.5 km
Semi-major
6,837.9 km
B*
-2.7161e-5
RAAN
61.9304°
Arg perigee
87.4235°
Mean anomaly
272.6896°
Rev number
22,465

§ Raw data

STARLINK-46941 53708U 22107J   26263.59676280 -.00001328  00000+0 -27161-4 0  99932 53708  53.1594  61.9304 0001116  87.4235 272.6896 15.35399937224656

JSON: /api/v1/satellites/53708 · /tle

For live sub-satellite position, see the globe view (requires WebGL).

§ Visibility from observer

Set your observer location to see the next 7 days of passes ≥ 10°. The values pass through the URL so the page stays shareable.

No JS? Fill the form by hand. The geolocation button needs JavaScript.